Orbital Elements at Epoch 2459000.5 (2020-May-31.0) TDB
Reference: JPL 17 (heliocentric ecliptic J2000)
Element | Value | Uncertainty (1-sigma) | Units |
e | .202587167961952 | 3.6596e-08 | |
a | 2.321644681322732 | 7.9303e-09 | au |
q | 1.851309260319631 | 8.6174e-08 | au |
i | 3.392964320758025 | 5.2815e-06 | deg |
node | 126.2497375199218 | 6.4284e-05 | deg |
peri | 255.3088444560379 | 6.584e-05 | deg |
M | 31.55707871873404 | 1.4233e-05 | deg |
tp | 2458887.237446282011 (2020-Feb-07.73744628) | 5.0845e-05 | TDB |
period | 1292.087892605538 3.54 | 6.6203e-06 1.813e-08 | d yr |
n | .2786188169243256 | 1.4276e-09 | deg/d |
Q | 2.791980102325832 | 9.5369e-09 | au |
|
| | Orbit Determination Parameters
Additional Information
|